Weather History for Charlevoix, MI

Change the Weather History Date:

Saturday, August 11, 2012

  Actual Average Record
Temperature  
Mean Temperature 70 °F -  
Max Temperature 76 °F 73 °F 91 °F (2007)
Min Temperature 64 °F 63 °F 53 °F (2001)
Cooling Degree Days 5    
Growing Degree Days 20 (Base 50)    
Moisture  
Dew Point 56 °F    
Average Humidity 63    
Maximum Humidity 72    
Minimum Humidity 46    
Precipitation  
Precipitation 0.00 in - - ()
Sea Level Pressure  
Sea Level Pressure 29.92 in    
Wind  
Wind Speed 12 mph (North)    
Max Wind Speed 16 mph    
Max Gust Speed 29 mph    
Visibility 10 miles    
Events      
Averages and records for this station are not official NWS values.
T = Trace of Precipitation, MM = Missing Value Source: NWS Daily Summary

Daily Weather History Graph

Daily Weather History Graph

Search for Another Location

Airport:

Trip Planner

Search our weather history database for the weather conditions in past years. The results will help you decide how hot, cold, wet, or windy it might be!

Date:

Astronomy

Aug. 11, 2012 Rise Set
Actual Time 6:37 AM EDT 8:53 PM EDT
Civil Twilight 6:05 AM EDT 9:26 PM EDT
Nautical Twilight 5:24 AM EDT 10:06 PM EDT
Astronomical Twilight 4:39 AM EDT 10:51 PM EDT
Moon 1:00 AM EDT (8/11) 4:33 PM EDT (8/11)
Length of Visible Light 15h 20m
Length of Day
14h 15m
Waning Crescent, 33% of the Moon is Illuminated
Aug 11
Waning Crescent
Aug 17
New
Aug 24
First Quarter
Aug 31
Full
Sep 8
Last Quarter

Hourly Weather History & Observations

Time (EDT) Temp. Dew Point Humidity Pressure Visibility Wind Dir Wind Speed Gust Speed Precip Events Conditions
12:14 AM 67.6 °F 54.3 °F 62% 29.91 in 10.0 mi NE 11.5 mph 28.8 mph N/A   Overcast
12:34 AM 68.0 °F 54.3 °F 62% 29.91 in 10.0 mi NNE 13.8 mph 21.9 mph N/A   Overcast
12:54 AM 68.0 °F 52.5 °F 58% 29.91 in 10.0 mi NNE 13.8 mph 23.0 mph N/A   Overcast
1:14 AM 68.0 °F 54.5 °F 62% 29.91 in 10.0 mi NNE 10.4 mph - N/A   Overcast
1:34 AM 67.8 °F 54.9 °F 63% 29.90 in 10.0 mi NNE 13.8 mph 23.0 mph N/A   Overcast
1:54 AM 67.6 °F 54.7 °F 63% 29.90 in 10.0 mi NNE 16.1 mph 20.7 mph N/A   Overcast
2:14 AM 67.5 °F 55.2 °F 65% 29.90 in 10.0 mi NNE 12.7 mph 20.7 mph N/A   Overcast
2:34 AM 67.1 °F 55.0 °F 65% 29.89 in 10.0 mi NNE 13.8 mph 19.6 mph N/A   Overcast
2:54 AM 67.1 °F 54.1 °F 63% 29.90 in 10.0 mi NE 8.1 mph 18.4 mph N/A   Overcast
3:14 AM 66.4 °F 54.0 °F 64% 29.90 in 10.0 mi North 5.8 mph - N/A   Overcast
3:34 AM 66.6 °F 54.3 °F 65% 29.90 in 10.0 mi NNE 8.1 mph - N/A   Overcast
3:54 AM 66.9 °F 55.9 °F 68% 29.89 in 10.0 mi North 11.5 mph 17.3 mph N/A   Overcast
4:14 AM 66.2 °F 55.9 °F 69% 29.90 in 10.0 mi NNE 11.5 mph 18.4 mph N/A   Overcast
4:34 AM 65.8 °F 55.8 °F 70% 29.90 in 10.0 mi North 13.8 mph 18.4 mph N/A   Overcast
4:55 AM 65.7 °F 55.6 °F 70% 29.90 in 10.0 mi North 11.5 mph 18.4 mph N/A   Overcast
5:14 AM 66.2 °F 54.7 °F 66% 29.89 in 10.0 mi North 12.7 mph 19.6 mph N/A   Mostly Cloudy
5:34 AM 65.7 °F 55.2 °F 69% 29.89 in 10.0 mi North 11.5 mph 20.7 mph N/A   Scattered Clouds
5:55 AM 65.5 °F 55.4 °F 70% 29.89 in 10.0 mi North 13.8 mph 19.6 mph N/A   Clear
6:14 AM 65.5 °F 54.9 °F 68% 29.89 in 10.0 mi North 16.1 mph 21.9 mph N/A   Clear
6:34 AM 65.3 °F 55.2 °F 70% 29.90 in 10.0 mi North 15.0 mph 21.9 mph N/A   Clear
6:54 AM 65.5 °F 55.8 °F 71% 29.90 in 10.0 mi North 15.0 mph 21.9 mph N/A   Clear
7:14 AM 65.1 °F 55.9 °F 72% 29.90 in 10.0 mi NNE 15.0 mph 23.0 mph N/A   Clear
7:34 AM 65.3 °F 55.4 °F 70% 29.91 in 10.0 mi North 15.0 mph 20.7 mph N/A   Clear
7:54 AM 65.3 °F 55.6 °F 71% 29.91 in 10.0 mi North 12.7 mph 19.6 mph N/A   Clear
8:14 AM 64.9 °F 55.2 °F 71% 29.92 in 10.0 mi NNE 15.0 mph 25.3 mph N/A   Clear
8:34 AM 64.8 °F 54.7 °F 70% 29.92 in 10.0 mi North 13.8 mph 24.2 mph N/A   Clear
8:54 AM 64.6 °F 55.0 °F 71% 29.92 in 10.0 mi North 13.8 mph 19.6 mph N/A   Clear
9:14 AM 64.9 °F 55.0 °F 70% 29.93 in 10.0 mi North 11.5 mph - N/A   Scattered Clouds
9:34 AM 66.2 °F 55.4 °F 68% 29.93 in 10.0 mi North 11.5 mph 17.3 mph N/A   Mostly Cloudy
9:54 AM 66.0 °F 55.9 °F 70% 29.93 in 10.0 mi North 16.1 mph 20.7 mph N/A   Mostly Cloudy
10:14 AM 66.6 °F 56.1 °F 69% 29.93 in 10.0 mi North 11.5 mph - N/A   Mostly Cloudy
10:35 AM 66.6 °F 55.8 °F 68% 29.94 in 10.0 mi North 11.5 mph - N/A   Overcast
10:54 AM 69.3 °F 55.9 °F 62% 29.94 in 10.0 mi North 12.7 mph 17.3 mph N/A   Overcast
11:14 AM 69.3 °F 55.6 °F 62% 29.94 in 10.0 mi North 11.5 mph - N/A   Mostly Cloudy
11:35 AM 69.4 °F 55.4 °F 61% 29.94 in 10.0 mi North 9.2 mph - N/A   Scattered Clouds
11:54 AM 68.0 °F 55.6 °F 64% 29.93 in 10.0 mi North 8.1 mph - N/A   Mostly Cloudy
12:14 PM 69.1 °F 55.8 °F 62% 29.93 in 10.0 mi North 8.1 mph - N/A   Mostly Cloudy
12:34 PM 68.5 °F 57.2 °F 67% 29.93 in 10.0 mi North 9.2 mph - N/A   Scattered Clouds
12:54 PM 69.8 °F 57.4 °F 65% 29.92 in 10.0 mi North 8.1 mph - N/A   Clear
1:14 PM 71.6 °F 58.1 °F 62% 29.92 in 10.0 mi NNW 9.2 mph - N/A   Clear
1:34 PM 72.3 °F 58.8 °F 62% 29.92 in 10.0 mi NNW 10.4 mph - N/A   Clear
1:54 PM 73.2 °F 58.1 °F 59% 29.91 in 10.0 mi NNW 11.5 mph - N/A   Clear
2:14 PM 74.1 °F 57.9 °F 57% 29.91 in 10.0 mi North 9.2 mph 17.3 mph N/A   Clear
2:34 PM 73.9 °F 57.4 °F 56% 29.91 in 10.0 mi NNW 10.4 mph - N/A   Scattered Clouds
2:54 PM 74.8 °F 55.9 °F 52% 29.91 in 10.0 mi North 9.2 mph - N/A   Scattered Clouds
3:14 PM 75.0 °F 55.6 °F 51% 29.91 in 10.0 mi NNW 8.1 mph - N/A   Scattered Clouds
3:34 PM 75.4 °F 56.5 °F 52% 29.91 in 10.0 mi NNW 8.1 mph - N/A   Scattered Clouds
3:54 PM 75.2 °F 55.6 °F 50% 29.92 in 10.0 mi NNW 8.1 mph - N/A   Clear
4:14 PM 75.6 °F 53.8 °F 47% 29.92 in 10.0 mi NNW 9.2 mph - N/A   Clear
4:34 PM 75.4 °F 53.6 °F 47% 29.91 in 10.0 mi NNW 6.9 mph - N/A   Scattered Clouds
4:55 PM 76.3 °F 54.3 °F 46% 29.91 in 10.0 mi NW 9.2 mph - N/A   Mostly Cloudy
5:14 PM 76.3 °F 55.4 °F 48% 29.91 in 10.0 mi NNW 9.2 mph - N/A   Mostly Cloudy
5:34 PM 75.2 °F 57.6 °F 54% 29.91 in 10.0 mi NNW 12.7 mph - N/A   Scattered Clouds
5:55 PM 74.8 °F 57.4 °F 54% 29.92 in 10.0 mi NNW 10.4 mph 17.3 mph N/A   Clear
6:14 PM 74.5 °F 56.8 °F 54% 29.91 in 10.0 mi NNW 12.7 mph 18.4 mph N/A   Clear
6:34 PM 73.9 °F 57.0 °F 55% 29.92 in 10.0 mi NNW 9.2 mph - N/A   Clear
6:54 PM 73.4 °F 56.5 °F 55% 29.92 in 10.0 mi NNW 11.5 mph 18.4 mph N/A   Clear
7:14 PM 72.7 °F 56.7 °F 57% 29.92 in 10.0 mi NNW 11.5 mph 16.1 mph N/A   Scattered Clouds
7:34 PM 72.1 °F 57.0 °F 59% 29.93 in 10.0 mi North 11.5 mph - N/A   Scattered Clouds
7:54 PM 71.2 °F 57.2 °F 61% 29.93 in 10.0 mi NNW 10.4 mph 17.3 mph N/A   Scattered Clouds
8:14 PM 71.2 °F 56.8 °F 60% 29.94 in 10.0 mi NNW 11.5 mph - N/A   Mostly Cloudy
8:34 PM 70.7 °F 57.4 °F 63% 29.94 in 10.0 mi North 10.4 mph - N/A   Scattered Clouds
8:54 PM 70.2 °F 57.4 °F 64% 29.94 in 10.0 mi NNW 12.7 mph 18.4 mph N/A   Scattered Clouds
9:14 PM 69.8 °F 57.0 °F 64% 29.95 in 10.0 mi North 10.4 mph 18.4 mph N/A   Scattered Clouds
9:34 PM 68.9 °F 58.1 °F 68% 29.96 in 10.0 mi NNW 10.4 mph - N/A   Clear
9:54 PM 68.4 °F 57.2 °F 67% 29.97 in 10.0 mi North 12.7 mph - N/A   Clear
10:14 PM 68.2 °F 56.1 °F 65% 29.97 in 10.0 mi North 12.7 mph 18.4 mph N/A   Scattered Clouds
10:35 PM 67.6 °F 56.5 °F 67% 29.97 in 10.0 mi North 10.4 mph - N/A   Scattered Clouds
10:54 PM 67.3 °F 55.2 °F 65% 29.98 in 10.0 mi NNW 9.2 mph - N/A   Clear
11:14 PM 67.5 °F 54.0 °F 62% 29.98 in 10.0 mi NNW 9.2 mph - N/A   Clear
11:35 PM 66.7 °F 56.1 °F 69% 29.99 in 10.0 mi NW 9.2 mph - N/A   Clear
11:54 PM 67.1 °F 55.6 °F 66% 29.99 in 10.0 mi NNW 8.1 mph - N/A   Mostly Cloudy